DW8462 Weather Reports


Display with metric or nautical units.
time (UTC)temp
F
wind
direction
speed
MPH
gust
MPH
rain 1hr
in
rain 24hr
in
rain mn
in
humidity
%
barometer
mb
20260831031556 74 81 0.0 0.0 0.00 0.00 0.00 91 1014.8
20260831030059 75 83 0.0 0.0 0.00 0.00 0.00 91 1015.0
20260831024555 75 81 0.0 0.0 0.00 0.00 0.00 92 1015.1
20260831023052 75 79 0.0 0.0 0.00 0.00 0.00 92 1015.1
20260831021551 75 80 0.0 0.0 0.00 0.00 0.00 91 1014.9
20260831020051 75 80 0.0 0.0 0.00 0.00 0.00 90 1015.1
20260831014551 76 80 0.0 0.0 0.00 0.00 0.00 90 1014.9
20260831013048 76 80 0.0 0.0 0.00 0.00 0.00 90 1014.5
20260831011547 76 77 0.0 0.0 0.00 0.00 0.00 90 1014.1
20260831010046 76 81 0.0 0.0 0.00 0.00 0.00 91 1014.3
20260831004546 77 86 0.0 0.0 0.00 0.00 0.00 90 1014.3
20260831003041 77 85 0.0 0.0 0.00 0.00 0.00 89 1014.7
20260831001541 78 85 0.0 0.0 0.00 0.00 0.00 88 1014.8
20260831000053 79 85 0.0 0.0 0.00 0.00 0.00 87 1015.0
20260830234546 80 85 0.0 0.0 0.00 0.00 0.00 86 1015.2
20260830233054 80 85 0.0 0.0 0.00 0.00 0.00 84 1015.2
20260830231538 81 85 0.0 0.0 0.00 0.00 0.00 84 1015.2
20260830230038 80 85 0.0 0.0 0.00 0.00 0.00 83 1014.9
20260830224507 81 117 0.0 0.0 0.00 0.00 0.00 83 1014.5
20260830223009 81 141 0.0 0.0 0.00 0.00 0.00 80 1014.8
20260830221536 82 141 0.0 0.0 0.00 0.00 0.00 81 1015.0
20260830220054 81 141 0.0 0.0 0.00 0.00 0.00 78 1014.8
20260830214507 81 141 0.0 0.0 0.00 0.00 0.00 77 1014.7
20260830213005 82 139 0.0 0.0 0.00 0.00 0.00 78 1014.5
20260830211505 82 139 0.0 0.0 0.00 0.00 0.00 80 1014.5
20260830210101 81 130 0.0 0.0 0.00 0.00 0.00 80 1014.7
20260830204614 81 148 0.0 0.0 0.00 0.00 0.00 80 1014.7
20260830203058 81 178 0.0 0.0 0.00 0.00 0.00 80 1014.8
20260830201609 81 360 0.0 0.0 0.00 0.00 0.00 78 1014.9
20260830194555 82 219 0.0 0.0 0.00 0.00 0.00 75 1015.0
20260830193052 81 195 0.0 0.0 0.00 0.00 0.00 79 1015.0
20260830191616 79 234 0.0 0.0 0.00 0.00 0.00 79 1014.8
20260830190057 79 245 0.0 0.0 0.00 0.00 0.00 80 1015.0
20260830184543 78 227 0.0 0.0 0.00 0.00 0.00 80 1015.1
20260830183042 78 192 0.0 0.0 0.00 0.00 0.00 80 1015.2
20260830181542 78 227 0.0 0.0 0.00 0.00 0.00 80 1015.2
20260830180043 77 224 0.0 0.0 0.00 0.00 0.00 81 1015.4
20260830174539 77 229 0.0 0.0 0.00 0.00 0.00 78 1015.6
20260830173045 78 360 0.0 0.0 0.00 0.00 0.00 78 1016.0
20260830171537 79 185 0.0 0.0 0.00 0.00 0.00 80 1016.0
20260830170004 77 229 0.0 0.0 0.00 0.00 0.00 82 1016.3
20260830164600 75 222 0.0 0.0 0.00 0.00 0.00 86 1016.5
20260830163053 73 360 0.0 0.0 0.00 0.00 0.00 88 1016.3
20260830161601 72 145 0.0 0.0 0.00 0.00 0.00 89 1015.8
20260830160052 72 138 0.0 0.0 0.00 0.00 0.00 90 1015.6
20260830154551 72 360 0.0 0.0 0.00 0.00 0.00 91 1016.2
20260830153016 71 136 0.0 0.0 0.00 0.00 0.00 92 1016.3
20260830151514 70 360 0.0 0.0 0.00 0.00 0.00 93 1016.4
20260830150018 70 86 0.0 0.0 0.00 0.00 0.00 93 1016.4
20260830144518 69 100 0.0 0.0 0.00 0.00 0.00 93 1016.6
20260830143006 69 360 0.0 0.0 0.00 0.00 0.00 93 1017.0
20260830141505 69 360 0.0 0.0 0.00 0.00 0.00 94 1017.0
20260830140001 69 360 0.0 0.0 0.00 0.00 0.00 94 1017.0
20260830134601 68 360 0.0 0.0 0.00 0.00 0.00 94 1017.1
20260830134502 68 360 0.0 0.0 0.00 0.00 0.00 94 1017.1
20260830133105 68 360 0.0 0.0 0.00 0.00 0.00 93 1017.0
20260830131559 68 360 0.0 0.0 0.00 0.00 0.00 93 1017.0
20260830130028 68 360 0.0 0.0 0.00 0.00 0.00 93 1017.0
20260830124525 68 360 0.0 0.0 0.00 0.00 0.00 93 1016.7
20260830123055 68 360 0.0 0.0 0.00 0.00 0.00 93 1016.6
20260830121553 67 360 0.0 0.0 0.00 0.00 0.00 93 1016.1
20260830114553 67 142 0.0 0.0 0.00 0.00 0.00 93 1015.6
20260830113050 67 144 0.0 0.0 0.00 0.00 0.00 92 1015.5
20260830111549 67 146 0.0 0.0 0.00 0.00 0.00 92 1015.3
20260830110047 67 146 0.0 0.0 0.00 0.00 0.00 92 1015.0
20260830104546 67 360 0.0 0.0 0.00 0.00 0.00 92 1015.1
20260830103045 67 360 0.0 0.0 0.00 0.00 0.00 91 1015.1
20260830101545 67 360 0.0 0.0 0.00 0.00 0.00 91 1015.1
20260830100043 67 360 0.0 0.0 0.00 0.00 0.00 91 1015.1
20260830094542 67 360 0.0 0.0 0.00 0.00 0.00 91 1015.0
20260830093041 67 360 0.0 0.0 0.00 0.00 0.00 90 1015.1
20260830091541 67 146 0.0 0.0 0.00 0.00 0.00 90 1015.3
20260830090038 67 360 0.0 0.0 0.00 0.00 0.00 90 1015.2
20260830084542 67 148 0.0 0.0 0.00 0.00 0.00 89 1015.3
20260830083043 67 145 0.0 0.0 0.00 0.00 0.00 88 1015.3
20260830081539 67 150 0.0 0.0 0.00 0.00 0.00 88 1015.2
20260830080038 68 150 0.0 0.0 0.00 0.00 0.00 87 1015.2
20260830074533 68 360 0.0 0.0 0.00 0.00 0.00 87 1015.2
20260830073031 68 136 0.0 0.0 0.00 0.00 0.00 86 1015.2
20260830071529 68 360 0.0 0.0 0.00 0.00 0.00 85 1015.4
20260830070029 68 150 0.0 0.0 0.00 0.00 0.00 85 1015.6
20260830064523 68 360 0.0 0.0 0.00 0.00 0.00 86 1015.7
20260830063022 68 143 0.0 0.0 0.00 0.00 0.00 88 1015.7
20260830061521 67 141 0.0 0.0 0.00 0.00 0.00 89 1015.7
20260830060037 67 151 0.0 0.0 0.00 0.00 0.00 90 1016.0
20260830054514 67 360 0.0 0.0 0.00 0.00 0.00 90 1016.1
20260830053012 67 360 0.0 0.0 0.00 0.00 0.00 90 1016.3
20260830051511 67 360 0.0 0.0 0.00 0.00 0.00 90 1016.4
20260830050040 67 360 0.0 0.0 0.00 0.00 0.00 91 1016.5
20260830044547 67 360 0.0 0.0 0.00 0.00 0.00 92 1016.6
20260830043036 67 360 0.0 0.0 0.00 0.00 0.00 92 1016.6
20260830041552 67 360 0.0 0.0 0.00 0.00 0.00 92 1016.6
20260830040044 67 360 0.0 0.0 0.00 0.00 0.00 92 1016.7
20260830034535 67 360 0.0 0.0 0.00 0.00 0.00 91 1016.8
20260830033039 67 360 0.0 0.0 0.00 0.00 0.00 91 1016.7